Appleton, WI

11:17 PM CST on December 11, 2019 (GMT -0600)
Outagamie County Regional

Weather History for KATW - October, 2019

Change the Weather History Date:

Tuesday, October 8, 2019

  Actual Average Record
Temperature  
Mean Temperature 54 °F -  
Max Temperature 66 °F 60 °F 81 °F (1949)
Min Temperature 42 °F 42 °F 24 °F (1987)
Degree Days  
Heating Degree Days 11    
Growing Degree Days 4 (Base 50)    
Moisture  
Dew Point 36 °F    
Average Humidity 59    
Maximum Humidity 76    
Minimum Humidity 28    
Precipitation  
Precipitation 0.00 in - - ()
Sea Level Pressure  
Sea Level Pressure 30.15 in    
Wind  
Wind Speed 4 mph ()    
Max Wind Speed 14 mph    
Max Gust Speed -    
Visibility 10.0 miles    
Events      
Averages and records for this station are not official NWS values.
T = Trace of Precipitation, MM = Missing Value Source: Averaged Metar Reports

Daily Weather History Graph

Daily Weather History Graph

Search for Another Location

Airport or City:

Astronomy

Oct. 08, 2019 Rise Set
Actual Time 7:00 AM CDT 6:22 PM CDT
Civil Twilight 6:31 AM CDT 6:51 PM CDT
Nautical Twilight 5:57 AM CDT 7:24 PM CDT
Astronomical Twilight 5:23 AM CDT 7:58 PM CDT
Moon 4:34 PM CDT (10/8) 1:34 AM CDT (10/8)
Length of Visible Light 12h 20m
Length of Day
11h 22m
Waxing Gibbous, 78% of the Moon is Illuminated
Oct 8
Waxing Gibbous
Oct 13
Full
Oct 21
Last Quarter
Oct 27
New
Nov 4
First Quarter

Hourly Weather History & Observations

Time (CDT) Temp. Windchill Dew Point Humidity Pressure Visibility Wind Dir Wind Speed Gust Speed Precip Events Conditions
12:15 AM 46.4 °F - 33.8 °F 62% 30.17 in 10.0 mi Calm Calm - N/A   Clear
12:35 AM 44.6 °F 42.2 °F 35.6 °F 71% 30.17 in 10.0 mi SW 4.6 mph - N/A   Clear
12:55 AM 46.4 °F - 35.6 °F 66% 30.17 in 10.0 mi Calm Calm - N/A   Clear
1:15 AM 44.6 °F 43.1 °F 33.8 °F 66% 30.17 in 10.0 mi South 3.5 mph - N/A   Clear
1:35 AM 42.8 °F 41.1 °F 35.6 °F 76% 30.17 in 10.0 mi South 3.5 mph - N/A   Clear
1:55 AM 44.6 °F 43.1 °F 35.6 °F 71% 30.17 in 10.0 mi SSE 3.5 mph - N/A   Clear
2:15 AM 44.6 °F 43.1 °F 35.6 °F 71% 30.17 in 10.0 mi SSE 3.5 mph - N/A   Clear
2:35 AM 46.4 °F 45.2 °F 35.6 °F 66% 30.17 in 10.0 mi South 3.5 mph - N/A   Clear
2:55 AM 44.6 °F 43.1 °F 35.6 °F 71% 30.17 in 10.0 mi South 3.5 mph - N/A   Clear
3:15 AM 44.6 °F - 35.6 °F 71% 30.17 in 10.0 mi Calm Calm - N/A   Clear
3:35 AM 44.6 °F - 35.6 °F 71% 30.17 in 10.0 mi Calm Calm - N/A   Clear
3:55 AM 44.6 °F - 35.6 °F 71% 30.17 in 10.0 mi Calm Calm - N/A   Clear
4:15 AM 44.6 °F 43.1 °F 33.8 °F 66% 30.18 in 10.0 mi South 3.5 mph - N/A   Clear
4:35 AM 44.6 °F 43.1 °F 33.8 °F 66% 30.18 in 10.0 mi South 3.5 mph - N/A   Clear
4:55 AM 44.6 °F 43.1 °F 33.8 °F 66% 30.18 in 10.0 mi South 3.5 mph - N/A   Clear
5:15 AM 44.6 °F 43.1 °F 33.8 °F 66% 30.18 in 10.0 mi South 3.5 mph - N/A   Clear
5:45 AM 44.6 °F 42.2 °F 35.6 °F 71% 30.19 in 10.0 mi Variable 4.6 mph - N/A   Clear
6:45 AM 42.8 °F 41.1 °F 33.8 °F 70% 30.19 in 10.0 mi Variable 3.5 mph - N/A   Clear
7:45 AM 44.6 °F 42.2 °F 35.6 °F 71% 30.19 in 10.0 mi Variable 4.6 mph - N/A   Clear
8:45 AM 51.8 °F - 39.2 °F 62% 30.20 in 10.0 mi Calm Calm - N/A   Clear
9:45 AM 57.2 °F - 39.2 °F 51% 30.20 in 10.0 mi South 5.8 mph - N/A   Clear
10:45 AM 62.6 °F - 35.6 °F 37% 30.19 in 10.0 mi South 10.4 mph - N/A   Clear
11:45 AM 64.4 °F - 35.6 °F 34% 30.19 in 10.0 mi South 12.7 mph - N/A   Clear
12:45 PM 64.4 °F - 39.2 °F 40% 30.17 in 10.0 mi SSE 10.4 mph - N/A   Clear
1:45 PM 66.2 °F - 37.4 °F 35% 30.15 in 10.0 mi SSE 8.1 mph - N/A   Clear
3:45 PM 66.2 °F - 33.8 °F 30% 30.11 in 10.0 mi SSE 12.7 mph - N/A   Scattered Clouds
4:45 PM 66.2 °F - 32.0 °F 28% 30.10 in 10.0 mi SSE 9.2 mph - N/A   Scattered Clouds
5:45 PM 62.6 °F - 35.6 °F 37% 30.09 in 10.0 mi SSE 9.2 mph - N/A   Partly Cloudy
6:45 PM 57.2 °F - 42.8 °F 59% 30.09 in 10.0 mi SE 8.1 mph - N/A   Scattered Clouds
7:45 PM 55.4 °F - 39.2 °F 54% 30.10 in 10.0 mi SSE 13.8 mph - N/A   Scattered Clouds
8:45 PM 53.6 °F - 39.2 °F 58% 30.10 in 10.0 mi SSE 9.2 mph - N/A   Scattered Clouds
9:45 PM 53.6 °F - 39.2 °F 58% 30.10 in 10.0 mi SSE 8.1 mph - N/A   Scattered Clouds
10:55 PM 51.8 °F - 39.2 °F 62% 30.10 in 10.0 mi SSE 8.1 mph - N/A   Clear
11:15 PM 51.8 °F - 39.2 °F 62% 30.10 in 10.0 mi SSE 6.9 mph - N/A   Clear
11:35 PM 51.8 °F - 39.2 °F 62% 30.11 in 10.0 mi SSE 6.9 mph - N/A   Clear
11:55 PM 51.8 °F - 39.2 °F 62% 30.11 in 10.0 mi SSE 6.9 mph - N/A   Clear